Cloud_Cover
0 2 0 3 4 4 0 0 0 1 5 7 5 5 5 5 5 5 5 5 5 5 5 5 5 17 38 36 6 15 56 5 5 5 5 5 5 5 5 32 22 56 5
0 0 1 5 5 5 6 5 5 5 5 5 5 5 5 5 5 5 5 5 5 5 5 5 5 7 10 8 24 56 66 63 30 5 5 5 5 5 5 22 33 5 5
5 5 5 5 5 5 5 5 22 19 5 5 5 7 5 5 5 5 27 11 5 5 10 12 22 93 96 44 23 40 56 57 9 5 5 5 5 19 5 10 21 29 82
5 5 6 5 15 18 5 5 5 5 17 8 5 5 5 5 5 5 9 5 5 6 5 6 30 56 68 10 43 95 98 100 90 81 50 72 62 5 5 14 56 56 71
5 5 5 57 56 30 15 5 5 5 10 15 36 78 100 90 19 23 20 39 5 5 5 13 8 87 60 27 48 92 100 99 85 98 96 90 56 7 6 7 5 5 49
40 10 19 24 66 64 84 45 5 26 26 13 5 5 34 99 100 100 100 96 27 6 12 5 6 10 25 68 23 65 60 44 80 97 100 93 63 50 51 98 65 62 100
39 9 20 28 64 9 30 5 8 22 95 99 100 99 100 100 100 100 100 100 100 100 100 95 68 55 39 11 18 5 5 8 53 24 51 96 100 100 100 77 58 44 100
97 96 82 8 5 5 5 5 5 15 47 68 70 80 99 93 100 100 100 100 100 100 75 100 100 100 89 54 9 22 58 68 98 100 100 100 100 90 67 92 100 97 96
5 5 5 5 26 62 73 90 99 98 70 76 98 100 100 100 100 100 100 100 98 99 100 53 30 19 7 60 87 95 98 100 100 100 100 100 100 100 100 100 100 92 65
5 5 5 5 39 64 57 31 6 20 68 100 100 100 100 96 98 99 56 23 38 74 99 46 7 78 99 100 100 100 100 100 100 100 100 100 100 100 100 100 98 100 21
5 5 13 29 12 5 5 5 10 68 100 100 96 52 47 54 35 21 13 5 5 24 74 86 70 82 100 100 100 100 100 100 100 100 100 100 100 100 100 100 93 100 90
38 5 9 86 57 5 5 5 5 5 5 72 84 8 5 5 5 5 5 5 52 30 30 85 100 100 100 100 100 100 100 100 100 100 100 100 100 100 100 100 100 90 45
100 95 86 50 10 13 28 70 82 17 34 43 61 48 26 18 18 8 14 46 81 100 100 100 100 100 100 100 100 100 100 100 100 100 100 100 100 100 100 100 100 100 100
100 95 62 50 92 99 98 92 100 100 100 100 99 57 95 100 100 100 100 100 100 100 100 99 100 100 100 100 100 100 100 100 100 100 100 100 100 100 100 100 100 100 100
100 100 100 100 100 78 85 96 93 99 97 100 100 100 100 100 100 100 100 100 100 100 100 100 100 99 100 98 100 100 100 100 100 100 100 100 100 100 100 100 100 100 100
100 100 100 100 100 100 100 100 100 88 66 27 15 27 58 100 63 41 65 32 67 94 89 73 100 100 100 100 100 100 100 100 100 90 100 100 100 100 100 100 100 100 100
79 100 100 100 97 65 50 78 100 100 100 100 100 100 100 100 100 100 100 100 85 43 71 25 26 18 18 58 56 99 100 100 99 100 100 100 100 100 100 100 100 100 92
83 97 100 90 43 69 74 75 98 94 92 100 100 100 100 100 100 100 99 100 69 24 10 5 6 4 7 9 95 87 100 100 98 100 100 100 100 100 100 100 100 100 99
100 100 98 100 99 100 94 92 45 28 5 5 5 5 5 6 20 8 5 5 5 48 100 59 55 94 22 20 32 100 100 100 100 100 100 100 100 100 100 92 100 100 100
100 100 100 94 97 100 96 76 36 52 85 63 97 89 9 12 26 20 5 5 6 78 100 99 100 99 40 6 6 95 100 100 100 100 100 100 100 100 100 100 100 100 100
100 100 100 100 88 78 72 78 83 99 100 99 100 100 75 18 5 10 23 20 99 100 100 100 97 90 100 33 34 100 100 100 100 100 100 100 100 100 100 100 100 100 100
100 100 98 69 54 54 66 100 100 100 100 96 82 50 34 11 93 70 56 100 100 100 100 100 30 63 100 52 42 100 100 100 100 100 100 100 100 100 100 100 100 100 100
100 100 100 100 100 100 100 100 100 100 99 100 100 86 34 69 91 24 59 100 100 100 100 100 100 100 100 100 98 100 100 100 100 100 100 100 100 100 100 100 100 100 100
100 100 100 100 100 100 100 100 100 100 96 82 28 5 9 84 50 24 83 100 100 100 100 100 100 100 100 100 100 100 100 100 100 100 100 100 100 100 100 100 100 100 100
65 88 85 82 76 82 78 70 15 53 5 5 5 5 5 60 100 86 70 99 100 100 100 100 100 100 100 100 100 100 100 100 100 100 100 100 100 100 100 100 100 100 99
5 5 4 2 4 1 0 2 1 0 4 5 5 5 5 14 100 85 61 70 100 100 100 100 100 100 100 100 100 100 100 100 100 100 100 100 100 100 100 100 100 100 89